This is the latest recevied weather packets stored in our database for station/object KB1JL-13. If no packets are shown the sender has not sent any weather packets the latest 10 day(s).
| Time | Temp. | Humidity | Pressure | Rain* | Wind** | Luminosity | Snow |
|---|---|---|---|---|---|---|---|
| 1778030554 | 16.67° C | 75% | 1022.2 hPa | 0 mm | - | 0 W/m² | - |
| 1778030252 | 16.67° C | 75% | 1022.2 hPa | 0 mm | - | 0 W/m² | - |
| 1778029948 | 16.67° C | 74% | 1021.9 hPa | 0 mm | - | 0 W/m² | - |
| 1778029646 | 16.67° C | 74% | 1021.9 hPa | 0 mm | - | 0 W/m² | - |
| 1778029343 | 17.22° C | 74% | 1021.9 hPa | 0 mm | - | 0 W/m² | - |
| 1778029040 | 17.22° C | 73% | 1021.9 hPa | 0 mm | - | 0 W/m² | - |
| 1778028737 | 17.22° C | 73% | 1021.6 hPa | 0 mm | - | 0 W/m² | - |
| 1778028433 | 17.22° C | 72% | 1021.9 hPa | 0 mm | - | 0 W/m² | - |
| 1778028131 | 17.22° C | 71% | 1021.6 hPa | 0 mm | - | 0 W/m² | - |
| 1778027826 | 17.78° C | 71% | 1021.2 hPa | 0 mm | - | 0 W/m² | - |
| 1778027523 | 17.78° C | 71% | 1021.6 hPa | 0 mm | - | 0 W/m² | - |
| 1778027219 | 17.78° C | 71% | 1021.6 hPa | 0 mm | - | 0 W/m² | - |
| 1778026915 | 17.78° C | 71% | 1021.2 hPa | 0 mm | - | 0 W/m² | - |
| 1778026611 | 17.78° C | 70% | 1021.2 hPa | 0 mm | - | 0 W/m² | - |
| 1778026309 | 17.78° C | 71% | 1020.9 hPa | 0 mm | - | 0 W/m² | - |
| 1778026006 | 17.78° C | 69% | 1021.2 hPa | 0 mm | - | 0 W/m² | - |
| 1778025703 | 17.78° C | 69% | 1021.2 hPa | 0 mm | - | 0 W/m² | - |
| 1778025401 | 17.78° C | 69% | 1020.9 hPa | 0 mm | - | 0 W/m² | - |
| 1778025098 | 18.33° C | 69% | 1020.9 hPa | 0 mm | - | 1 W/m² | - |
| 1778024795 | 17.78° C | 70% | 1020.9 hPa | 0 mm | - | 3 W/m² | - |
| 1778024492 | 17.78° C | 71% | 1020.9 hPa | 0 mm | - | 5 W/m² | - |
| 1778024189 | 17.78° C | 71% | 1020.9 hPa | 0 mm | - | 9 W/m² | - |
| 1778023886 | 18.33° C | 71% | 1020.5 hPa | 0 mm | - | 12 W/m² | - |
| 1778023584 | 18.33° C | 69% | 1020.9 hPa | 0 mm | - | 16 W/m² | - |
| 1778023281 | 18.33° C | 70% | 1020.9 hPa | 0 mm | - | 21 W/m² | - |
* Rain latest hour (hover to see other rain measurements)
** Current wind speed in m/s (hover to see current wind gust speed)